STARLINK-33978, 63832

Orbit data source: Space-Track

STARLINK-33978, 63832 is a payload satellite owned by SpaceX/Seattle (US) in LEO that was launched on Sun, 04 May 2025 UTC via an FALCON 9 launch vehicle from the Air Force Eastern Test Range (AFETR). Payload-class satellites include a variety of spacecraft equipped with specific instruments for various scientific and technological missions. These include communications satellites like Starlink; space stations such as the ISS; scientific satellites like the Hubble; Earth observation satellites from companies like Planet Labs, Umbra, and HawkEye 360; GPS; miniature CubeSats for education and research; and military/defense satellites.

Loading next visibility...
Identifier
63832, 2025-092AE
Orbit
LEO
Last TLE update
8 hours ago
Origin
Manufacturer
SpaceX/Seattle
Mission
Operational Commercial Communications
Bus & Motor
STARLINK V2MO, Unknown motor
Mass
575 kg wet, ~530 kg dry
Launch date (UTC)
2025-05-04 (2 months ago)
Launch vehicle
FALCON 9
Launch site
Air Force Eastern Test Range (AFETR)
Object type
Payload
Rocket body
Debris
Shape & HBR
Box + 1 Pan, 29 m
Radar Cross Section
41.120 m², Large (>1 m²)

Expand to show TLE details & history

TLE from 8 hours ago
0 STARLINK-33978
1 63832U 25092AE  25181.91668981  .00032019  00000-0  11685-2 0  9993
2 63832  43.0007 154.2652 0001392 262.3774   4.5942 15.27566117  5807
Epoch: 2025-06-30T22:00Z
TLE epoch observation values (Epoch: 2025-06-30T22:00:01.999Z)
Latitude
-43.08453°
Longitude
170.90934°
Altitude
495.457 km
Speed
7.618 km/s
True Right ascension
04h 00m 32s
True Declination
-42° 54' 23"
Sunlit
Object was in daylight at epoch
Visualization orbit readout
Latitude
-42.96452°
Longitude
179.85458°
Altitude
495.359 km
Speed
7.618 km/s
Apparent Right ascension
05h 03m 04s
Apparent Declination
-41° 30' 48"
Sunlit
Object is in daylight
Visualization observer readout
Local Sidereal Time
17:30:35
Azimuth
109.261° ESE
Elevation
-84.55°
Doppler factor
1
Orbital elements
Apogee altitude
485.991 km
Perigee altitude
484.08 km
Semi-major axis
6,863.173 km
Eccentricity
0.00014
Inclination
43.0007°
RAAN
154.2652°
Arg. of periapsis
262.3774°
True anomaly
Unknown
Mean anomaly
4.5942°
Eccentric anomaly
Unknown
Mean motion
3.8173 °/min
Orbital period
94.31 mins
BSTAR
0.0011685
Loading maneuver chart data...
Loading SW <> Apogee altitude chart data...
Loading historical data...
Loading historical data...
Loading historical data...
Loading historical data...
Loading historical data...
Loading historical data...
Loading historical data...

STARLINK-33978 Visibility forecast

Observer location: undefined°, undefined°

Span
Click to sort rows by Start time (UTC) header in descending order
Start Az.
Max El. time (UTC)
Max El. Az.
Max El.
End time (UTC)
End Az.
7 mins2025-07-01 06:41:53.268Z284.291° WNW2025-07-01 06:44:53.268Z238.3° WSW41.01°2025-07-01 06:48:53.268Z121.665° SE
5 mins2025-07-02 01:17:53.268Z213.259° SW2025-07-02 01:19:53.268Z171.182° S31.044°2025-07-02 01:22:53.268Z88.417° E
6 mins2025-07-02 02:56:53.268Z269.059° W2025-07-02 02:58:53.268Z313.453° NW41.328°2025-07-02 03:02:53.268Z70.782° E
6 mins2025-07-02 04:35:53.268Z292.341° WNW2025-07-02 04:38:53.268Z35.959° NE37.404°2025-07-02 04:41:53.268Z83.637° E
|